GW4853 Weather Reports


Display with metric or nautical units.
time (UTC)temp
F
wind
direction
speed
MPH
gust
MPH
rain 1hr
in
rain 24hr
in
rain mn
in
humidity
%
barometer
mb
20260503044741 35 60 0.0 0.0 0.00 0.00 0.00 96 1017.4
20260503044239 35 60 0.0 0.0 0.00 0.00 0.00 95 1017.4
20260503043736 35 60 0.0 0.0 0.00 0.00 0.00 95 1017.5
20260503043233 36 60 0.0 0.0 0.00 0.00 0.00 94 1017.2
20260503042729 36 60 0.0 0.0 0.00 0.00 0.00 94 1017.4
20260503042226 37 60 0.0 0.0 0.00 0.00 0.00 94 1017.2
20260503041722 37 60 0.0 0.0 0.00 0.00 0.00 94 1017.4
20260503041220 37 60 0.0 0.0 0.00 0.00 0.00 94 1017.2
20260503040717 37 60 0.0 0.0 0.00 0.00 0.00 93 1017.4
20260503040215 37 60 0.0 0.0 0.00 0.00 0.00 93 1017.2
20260503035711 38 60 0.0 0.0 0.00 0.00 0.00 93 1017.5
20260503035209 38 60 0.0 0.0 0.00 0.00 0.00 92 1017.4
20260503034706 38 60 0.0 0.0 0.00 0.00 0.00 92 1017.2
20260503034203 38 60 0.0 0.0 0.00 0.00 0.00 91 1017.5
20260503033700 38 60 0.0 0.0 0.00 0.00 0.00 91 1017.4
20260503033157 38 60 0.0 0.0 0.00 0.00 0.00 90 1017.4
20260503032655 37 60 0.0 0.0 0.00 0.00 0.00 89 1017.4
20260503032154 37 60 0.0 0.0 0.00 0.00 0.00 87 1017.4
20260503031651 38 60 0.0 0.0 0.00 0.00 0.00 87 1017.1
20260503031149 38 60 0.0 0.0 0.00 0.00 0.00 87 1017.4
20260503030644 39 60 0.0 0.0 0.00 0.00 0.00 86 1017.4
20260503030141 39 60 0.0 1.0 0.00 0.00 0.00 86 1017.4
20260503025637 39 60 0.0 0.0 0.00 0.00 0.00 85 1017.2
20260503025136 40 60 0.0 0.0 0.00 0.00 0.00 84 1017.1
20260503024632 40 60 0.0 1.0 0.00 0.00 0.00 83 1017.4
20260503024130 40 60 1.0 1.0 0.00 0.00 0.00 83 1017.0
20260503023627 40 60 0.0 1.0 0.00 0.00 0.00 82 1017.0
20260503023124 41 60 0.0 1.0 0.00 0.00 0.00 81 1017.1
20260503022619 41 60 1.0 1.0 0.00 0.00 0.00 79 1017.0
20260503022114 41 56 1.0 1.0 0.00 0.00 0.00 78 1017.0
20260503021611 41 62 0.0 2.0 0.00 0.00 0.00 78 1016.8
20260503021108 42 61 1.0 1.0 0.00 0.00 0.00 78 1017.1
20260503020605 42 62 1.0 2.0 0.00 0.00 0.00 77 1017.0
20260503015559 42 59 1.0 2.0 0.00 0.00 0.00 74 1016.7
20260503015056 43 60 1.0 2.0 0.00 0.00 0.00 73 1017.0
20260503014552 44 41 1.0 2.0 0.00 0.00 0.00 70 1016.7
20260503014050 44 19 1.0 2.0 0.00 0.00 0.00 69 1016.7
20260503013547 44 46 1.0 2.0 0.00 0.00 0.00 70 1016.6
20260503013044 44 44 1.0 2.0 0.00 0.00 0.00 69 1016.5
20260503012542 44 49 1.0 2.0 0.00 0.00 0.00 70 1016.5
20260503012038 44 49 2.0 2.0 0.00 0.00 0.00 68 1016.3
20260503011535 44 55 1.0 2.0 0.00 0.00 0.00 68 1016.4
20260503011032 44 52 1.0 3.0 0.00 0.00 0.00 67 1016.4
20260503010528 45 51 0.0 2.0 0.00 0.00 0.00 66 1016.2
20260503010026 45 54 0.0 2.0 0.00 0.00 0.00 66 1016.2
20260503005523 46 34 1.0 2.0 0.00 0.00 0.00 64 1016.2
20260503005020 46 324 1.0 2.0 0.00 0.00 0.00 62 1016.0
20260503004516 47 319 3.0 4.0 0.00 0.00 0.00 61 1016.0
20260503004015 47 342 2.0 3.0 0.00 0.00 0.00 60 1016.0
20260503003511 47 14 2.0 4.0 0.00 0.00 0.00 59 1016.0
20260503003008 48 9 3.0 7.0 0.00 0.00 0.00 58 1016.0
20260503002505 48 328 6.0 8.0 0.00 0.00 0.00 56 1016.1
20260503002001 48 318 3.0 4.0 0.00 0.00 0.00 55 1015.9
20260503001458 49 315 6.0 7.0 0.00 0.00 0.00 54 1015.8
20260503000955 49 15 2.0 10.0 0.00 0.00 0.00 51 1015.7
20260503000453 49 5 2.0 4.0 0.00 0.00 0.00 50 1015.7
20260502235950 50 332 4.0 6.0 0.00 0.00 0.00 47 1015.5
20260502235446 50 347 3.0 7.0 0.00 0.00 0.00 47 1015.5
20260502234944 50 319 3.0 10.0 0.00 0.00 0.00 46 1015.4
20260502234440 51 17 4.0 6.0 0.00 0.00 0.00 47 1015.5
20260502233938 51 319 7.0 10.0 0.00 0.00 0.00 44 1015.3
20260502233433 51 308 2.0 3.0 0.00 0.00 0.00 47 1015.2
20260502232930 51 307 4.0 7.0 0.00 0.00 0.00 46 1015.3
20260502232426 51 293 3.0 7.0 0.00 0.00 0.00 46 1015.3
20260502231923 51 8 2.0 6.0 0.00 0.00 0.00 46 1015.3
20260502231421 51 315 2.0 6.0 0.00 0.00 0.00 45 1015.2
20260502230919 52 20 6.0 8.0 0.00 0.00 0.00 45 1015.3
20260502230416 52 341 4.0 6.0 0.00 0.00 0.00 45 1015.1
20260502225915 52 303 4.0 9.0 0.00 0.00 0.00 43 1015.1
20260502225410 52 309 3.0 6.0 0.00 0.00 0.00 44 1015.3
20260502224907 53 262 3.0 7.0 0.00 0.00 0.00 45 1015.2
20260502224403 53 326 3.0 10.0 0.00 0.00 0.00 42 1015.2
20260502223900 55 300 3.0 4.0 0.00 0.00 0.00 42 1015.0
20260502223358 54 297 2.0 9.0 0.00 0.00 0.00 42 1015.1
20260502222856 54 356 4.0 9.0 0.00 0.00 0.00 41 1014.9
20260502222353 55 318 10.0 13.0 0.00 0.00 0.00 39 1015.0
20260502221848 55 306 4.0 9.0 0.00 0.00 0.00 40 1015.0
20260502221345 55 16 4.0 7.0 0.00 0.00 0.00 42 1014.9
20260502220843 53 329 2.0 3.0 0.00 0.00 0.00 46 1015.0
20260502220338 53 319 2.0 4.0 0.00 0.00 0.00 45 1014.9
20260502215835 53 323 2.0 6.0 0.00 0.00 0.00 43 1014.9
20260502215333 54 308 2.0 10.0 0.00 0.00 0.00 43 1014.8
20260502214829 55 331 7.0 10.0 0.00 0.00 0.00 38 1014.8
20260502214326 53 337 8.0 13.0 0.00 0.00 0.00 41 1014.6
20260502213823 53 335 3.0 10.0 0.00 0.00 0.00 42 1014.7
20260502213320 53 331 8.0 10.0 0.00 0.00 0.00 40 1014.7
20260502212819 55 334 7.0 10.0 0.00 0.00 0.00 39 1014.6
20260502212317 55 318 5.0 14.0 0.00 0.00 0.00 41 1014.6
20260502211814 55 347 3.0 13.0 0.00 0.00 0.00 39 1014.6
20260502211310 55 288 3.0 6.0 0.00 0.00 0.00 43 1014.5
20260502210808 53 323 4.0 9.0 0.00 0.00 0.00 42 1014.5
20260502210305 55 341 6.0 14.0 0.00 0.00 0.00 39 1014.6
20260502205802 56 316 4.0 6.0 0.00 0.00 0.00 36 1014.4
20260502205257 56 260 2.0 6.0 0.00 0.00 0.00 39 1014.7
20260502204755 55 319 3.0 4.0 0.00 0.00 0.00 42 1014.6
20260502204252 55 322 2.0 10.0 0.00 0.00 0.00 40 1014.6
20260502203750 55 307 4.0 9.0 0.00 0.00 0.00 41 1014.7
20260502203248 57 328 6.0 10.0 0.00 0.00 0.00 37 1014.7
20260502202747 57 311 2.0 6.0 0.00 0.00 0.00 46 1014.6
20260502202245 57 242 2.0 10.0 0.00 0.00 0.00 42 1014.5
20260502201743 54 339 6.0 8.0 0.00 0.00 0.00 42 1014.5
20260502201239 54 266 3.0 4.0 0.00 0.00 0.00 42 1014.6
20260502200735 55 289 1.0 3.0 0.00 0.00 0.00 44 1014.6
20260502200231 55 338 7.0 9.0 0.00 0.00 0.00 41 1014.6
20260502195730 56 321 4.0 14.0 0.00 0.00 0.00 44 1014.5
20260502195226 56 293 4.0 4.0 0.00 0.00 0.00 41 1014.7
20260502194723 55 299 4.0 7.0 0.00 0.00 0.00 40 1014.7
20260502194220 58 328 4.0 7.0 0.00 0.00 0.00 38 1014.8
20260502193715 58 290 2.0 8.0 0.00 0.00 0.00 40 1014.8
20260502193213 57 273 3.0 3.0 0.00 0.00 0.00 47 1014.7
20260502192708 56 318 5.0 11.0 0.00 0.00 0.00 40 1014.8
20260502192206 57 244 3.0 8.0 0.00 0.00 0.00 37 1015.0
20260502191702 55 300 4.0 9.0 0.00 0.00 0.00 47 1015.0
20260502191200 55 322 5.0 16.0 0.00 0.00 0.00 43 1015.0
20260502190657 55 274 0.0 1.0 0.00 0.00 0.00 45 1015.0
20260502190155 56 338 6.0 11.0 0.00 0.00 0.00 40 1015.1
20260502185654 58 357 5.0 9.0 0.00 0.00 0.00 39 1015.1
20260502185152 58 346 3.0 6.0 0.00 0.00 0.00 39 1015.2
20260502184648 56 354 5.0 7.0 0.00 0.00 0.00 47 1015.3
20260502184148 53 321 4.0 8.0 0.00 0.00 0.00 44 1015.3
20260502183645 54 346 4.0 7.0 0.00 0.00 0.00 44 1015.3
20260502183141 54 328 1.0 4.0 0.00 0.00 0.00 44 1015.3
20260502182642 54 310 1.0 3.0 0.00 0.00 0.00 45 1015.2
20260502182137 53 337 7.0 10.0 0.00 0.00 0.00 42 1015.4
20260502181635 54 340 4.0 9.0 0.00 0.00 0.00 42 1015.4
20260502181134 54 359 6.0 7.0 0.00 0.00 0.00 42 1015.5
20260502180631 55 252 2.0 6.0 0.00 0.00 0.00 42 1015.5
20260502180128 54 301 2.0 8.0 0.00 0.00 0.00 41 1015.7
20260502170237 56 304 3.0 4.0 0.00 0.00 0.00 43 1016.1
20260502164225 53 343 12.0 15.0 0.00 0.00 0.00 46 1016.3
20260502163720 55 225 2.0 7.0 0.00 0.00 0.00 50 1016.4
20260502163217 54 318 4.0 8.0 0.00 0.00 0.00 48 1016.6
20260502162713 54 312 4.0 10.0 0.00 0.00 0.00 48 1016.5
20260502162205 54 302 5.0 9.0 0.00 0.00 0.00 47 1016.8
20260502161702 56 323 5.0 7.0 0.00 0.00 0.00 47 1016.7
20260502161158 55 353 7.0 9.0 0.00 0.00 0.00 46 1016.8
20260502160657 54 355 7.0 11.0 0.00 0.00 0.00 47 1017.1
20260502160155 54 355 7.0 11.0 0.00 0.00 0.00 47 1017.1
20260502152212 53 192 3.0 8.0 0.00 0.00 0.00 51 1017.4
20260502151710 53 192 3.0 8.0 0.00 0.00 0.00 51 1017.4
20260502151207 53 326 2.0 4.0 0.00 0.00 0.00 53 1017.5
20260502150704 53 318 2.0 6.0 0.00 0.00 0.00 51 1017.6
20260502150200 53 311 3.0 4.0 0.00 0.00 0.00 50 1017.5
20260502140124 48 4 3.0 3.0 0.00 0.00 0.00 66 1017.9
20260502130549 44 7 2.0 2.0 0.00 0.00 0.00 99 1016.6
20260502123532 42 347 1.0 1.0 0.00 0.00 0.00 99 1016.3
20260502123028 41 344 0.0 1.0 0.00 0.00 0.00 99 1016.3
20260502122525 41 348 0.0 1.0 0.00 0.00 0.00 99 1016.4
20260502122023 41 348 0.0 0.0 0.00 0.00 0.00 99 1016.2
20260502121520 39 348 0.0 0.0 0.00 0.00 0.00 99 1016.3
20260502121017 39 348 0.0 0.0 0.00 0.00 0.00 99 1016.2
20260502120513 39 348 0.0 0.0 0.00 0.00 0.00 99 1016.2
20260502115508 38 348 0.0 0.0 0.00 0.00 0.00 99 1016.0
20260502115004 38 347 0.0 0.0 0.00 0.00 0.00 99 1016.0
20260502114501 38 347 0.0 1.0 0.00 0.00 0.00 99 1016.0
20260502113958 38 356 0.0 0.0 0.00 0.00 0.00 99 1016.1
20260502113455 38 356 0.0 1.0 0.00 0.00 0.00 99 1016.1
20260502112954 38 331 0.0 2.0 0.00 0.00 0.00 99 1016.1
20260502112451 37 329 0.0 1.0 0.00 0.00 0.00 99 1016.1
20260502111948 37 329 1.0 1.0 0.00 0.00 0.00 99 1016.1
20260502111445 37 335 1.0 2.0 0.00 0.00 0.00 99 1016.2
20260502110943 37 346 1.0 1.0 0.00 0.00 0.00 99 1016.1
20260502110440 37 330 2.0 2.0 0.00 0.00 0.00 99 1016.1
20260502105937 38 14 0.0 1.0 0.00 0.00 0.00 99 1015.9
20260502105435 38 12 0.0 1.0 0.00 0.00 0.00 99 1015.7
20260502104933 37 18 0.0 0.0 0.00 0.00 0.00 99 1015.8
20260502104429 37 19 1.0 1.0 0.00 0.00 0.00 99 1016.0
20260502103927 37 18 1.0 1.0 0.00 0.00 0.00 99 1015.9
20260502103425 38 17 1.0 1.0 0.00 0.00 0.00 99 1016.2
20260502102921 38 16 0.0 0.0 0.00 0.00 0.00 99 1016.3
20260502102418 38 16 0.0 0.0 0.00 0.00 0.00 99 1016.2
20260502101915 38 16 0.0 0.0 0.00 0.00 0.00 99 1016.2
20260502101414 38 16 0.0 0.0 0.00 0.00 0.00 99 1016.2
20260502100911 37 16 0.0 0.0 0.00 0.00 0.00 99 1016.3
20260502100410 37 16 0.0 0.0 0.00 0.00 0.00 99 1016.1
20260502091343 38 77 0.0 1.0 0.00 0.00 0.00 99 1016.3
20260502090841 38 78 0.0 1.0 0.00 0.00 0.00 99 1016.1
20260502090338 38 77 0.0 0.0 0.00 0.00 0.00 99 1016.3
20260502071233 38 86 0.0 1.0 0.00 0.00 0.00 99 1015.8
20260502070731 38 88 0.0 1.0 0.00 0.00 0.00 99 1015.8
20260502070228 37 93 0.0 0.0 0.00 0.00 0.00 99 1015.9
20260502065726 37 92 1.0 1.0 0.00 0.00 0.00 99 1015.9
20260502065224 36 93 1.0 1.0 0.00 0.00 0.00 99 1016.1
20260502064723 36 94 1.0 2.0 0.00 0.00 0.00 99 1015.9
20260502064220 36 98 1.0 2.0 0.00 0.00 0.00 99 1016.0
20260502063717 37 97 1.0 1.0 0.00 0.00 0.00 99 1016.2
20260502063215 37 98 1.0 1.0 0.00 0.00 0.00 99 1016.0
20260502062712 37 97 0.0 1.0 0.00 0.00 0.00 99 1016.2
20260502062209 37 97 0.0 1.0 0.00 0.00 0.00 99 1016.2
20260502061708 37 97 0.0 0.0 0.00 0.00 0.00 99 1016.2
20260502061205 37 96 1.0 1.0 0.00 0.00 0.00 99 1016.4
20260502060700 36 98 0.0 0.0 0.00 0.00 0.00 99 1016.5
20260502060157 36 98 0.0 0.0 0.00 0.00 0.00 98 1016.4
20260502055654 37 98 1.0 1.0 0.00 0.00 0.00 98 1016.5
20260502055152 38 358 1.0 1.0 0.00 0.00 0.00 98 1016.5
20260502054651 37 56 1.0 1.0 0.00 0.00 0.00 98 1016.7
20260502054148 37 63 0.0 0.0 0.00 0.00 0.00 98 1016.5
20260502053645 37 63 0.0 0.0 0.00 0.00 0.00 98 1016.7
20260502053142 37 63 0.0 0.0 0.00 0.00 0.00 98 1016.4
20260502052640 36 63 0.0 0.0 0.00 0.00 0.00 98 1016.5
20260502052138 37 63 0.0 0.0 0.00 0.00 0.00 98 1016.4
20260502051636 37 63 0.0 0.0 0.00 0.00 0.00 98 1016.4
20260502051134 37 63 0.0 0.0 0.00 0.00 0.00 98 1016.5
20260502050630 37 63 0.0 0.0 0.00 0.00 0.00 98 1016.6
20260502050127 37 63 0.0 0.0 0.00 0.00 0.00 98 1016.5
20260502045623 37 63 0.0 0.0 0.00 0.00 0.00 97 1016.5
20260502045121 37 63 0.0 0.0 0.00 0.00 0.00 97 1016.5